WATT

Kupang/El Tari Airport

Airport
ICAO code
WATT
IATA Code
KOE
Summary
ICAO Region
APAC
ICAO Territory
Location

Kupang, Nusa Tenggara Timur

Serving
Kupang
Elevation
335 ft
Coordinates
10° 10' 18" S , 123° 40' 16" E
Metar
WATT 171330Z AUTO 11007KT 070V140 9999 NCD 27/24 Q1015

El Tari International Airport is an airport in Kupang, East Nusa Tenggara, Indonesia.

Airport map

Aerial View

SKYbrary Partners:

Safety knowledge contributed by: